CW3081 Weather Reports


Display with metric or nautical units.
time (UTC)temp
F
wind
direction
speed
MPH
gust
MPH
rain 1hr
in
rain 24hr
in
rain mn
in
humidity
%
barometer
mb
20260510044545 55 0 0.0 0.0 0.00 0.00 0.00 89 1012.9
20260510043132 56 0 0.0 0.0 0.00 0.00 0.00 89 1013.0
20260510041552 56 0 0.0 0.0 0.00 0.00 0.00 88 1013.0
20260510040050 57 0 0.0 0.0 0.00 0.00 0.00 88 1013.1
20260510034553 57 0 0.0 0.0 0.00 0.00 0.00 87 1012.9
20260510033050 57 0 0.0 0.0 0.00 0.00 0.00 87 1012.9
20260510031613 58 0 0.0 0.0 0.00 0.00 0.00 86 1012.9
20260510030047 59 0 0.0 0.0 0.00 0.00 0.00 85 1012.7
20260510024545 59 0 0.0 0.0 0.00 0.00 0.00 85 1012.5
20260510023054 60 0 0.0 0.0 0.00 0.00 0.00 82 1012.2
20260510021549 61 0 0.0 0.0 0.00 0.00 0.00 81 1012.2
20260510020049 62 0 0.0 0.0 0.00 0.00 0.00 80 1012.2
20260510014547 63 0 0.0 0.0 0.00 0.00 0.00 79 1012.1
20260510013042 64 0 0.0 0.0 0.00 0.00 0.00 77 1011.6
20260510011603 65 0 0.0 0.0 0.00 0.00 0.00 76 1011.5
20260510010058 66 0 0.0 0.0 0.00 0.00 0.00 74 1011.3
20260510004545 68 0 0.0 0.0 0.00 0.00 0.00 72 1011.2
20260510003042 69 0 0.0 0.0 0.00 0.00 0.00 71 1011.2
20260510001547 70 0 0.0 0.0 0.00 0.00 0.00 67 1011.2
20260510000047 72 0 0.0 0.0 0.00 0.00 0.00 63 1011.1
20260509234546 73 0 0.0 0.0 0.00 0.00 0.00 61 1011.0
20260509233044 74 0 0.0 0.0 0.00 0.00 0.00 54 1010.9
20260509231557 74 0 0.0 0.0 0.00 0.00 0.00 53 1010.8
20260509230054 75 0 0.0 0.0 0.00 0.00 0.00 52 1010.8
20260509224548 75 0 0.0 1.0 0.00 0.00 0.00 49 1010.6
20260509223047 75 0 0.0 0.0 0.00 0.00 0.00 52 1010.6
20260509221550 76 0 0.0 0.0 0.00 0.00 0.00 51 1010.4
20260509220049 76 0 0.0 1.0 0.00 0.00 0.00 53 1010.5
20260509214548 76 221 0.0 1.0 0.00 0.00 0.00 51 1010.4
20260509213101 76 0 0.0 1.0 0.00 0.00 0.00 54 1010.3
20260509211610 76 250 1.0 2.0 0.00 0.00 0.00 51 1010.3
20260509210053 76 247 0.0 2.0 0.00 0.00 0.00 49 1010.2
20260509204557 76 278 0.0 1.0 0.00 0.00 0.00 51 1010.3
20260509203057 76 0 0.0 2.0 0.00 0.00 0.00 50 1010.2
20260509201538 75 261 0.0 2.0 0.00 0.00 0.00 53 1010.2
20260509200050 75 351 1.0 2.0 0.00 0.00 0.00 53 1010.5
20260509194547 75 124 0.0 2.0 0.00 0.00 0.00 53 1010.7
20260509193044 76 336 0.0 3.0 0.00 0.00 0.00 55 1010.8
20260509191544 76 0 0.0 2.0 0.00 0.00 0.00 55 1010.9
20260509190047 75 329 0.0 3.0 0.00 0.00 0.00 58 1011.0
20260509184543 75 341 1.0 2.0 0.00 0.00 0.00 57 1011.1
20260509183049 74 279 1.0 2.0 0.00 0.00 0.00 59 1011.1
20260509181604 74 0 0.0 1.0 0.00 0.00 0.00 59 1010.9
20260509180047 73 0 0.0 2.0 0.00 0.00 0.00 62 1010.8
20260509174542 74 100 0.0 1.0 0.00 0.00 0.00 63 1010.8
20260509173057 73 323 0.0 2.0 0.00 0.00 0.00 61 1010.8
20260509171539 72 262 1.0 2.0 0.00 0.00 0.00 61 1010.8
20260509170047 72 25 0.0 1.0 0.00 0.00 0.00 66 1010.9
20260509164551 71 326 0.0 1.0 0.00 0.00 0.00 66 1011.0
20260509163058 70 82 1.0 3.0 0.00 0.00 0.00 69 1011.1
20260509161542 70 32 0.0 1.0 0.00 0.00 0.00 72 1011.0
20260509160051 69 349 1.0 2.0 0.00 0.00 0.00 73 1011.2
20260509154545 68 312 0.0 2.0 0.00 0.00 0.00 74 1011.1
20260509153041 67 0 0.0 2.0 0.00 0.00 0.00 77 1010.9
20260509151545 66 0 0.0 3.0 0.00 0.00 0.00 78 1010.8
20260509150042 65 281 0.0 2.0 0.00 0.00 0.00 79 1010.8
20260509144544 64 252 0.0 1.0 0.00 0.00 0.00 81 1010.7
20260509143040 64 30 0.0 3.0 0.00 0.00 0.00 82 1010.6
20260509141550 63 281 1.0 3.0 0.00 0.00 0.00 83 1010.5
20260509140119 62 284 0.0 2.0 0.00 0.00 0.00 84 1010.5
20260509134551 61 282 1.0 3.0 0.00 0.00 0.00 85 1010.6
20260509133057 61 202 0.0 3.0 0.00 0.00 0.00 86 1010.3
20260509131549 60 262 1.0 2.0 0.00 0.00 0.00 87 1010.5
20260509130047 59 237 0.0 1.0 0.00 0.00 0.00 88 1010.5
20260509124547 58 240 0.0 1.0 0.00 0.00 0.00 91 1010.4
20260509123050 0 0.0 0.0 0.00 0.00 0.00 1010.5
20260509121541 0 0.0 0.0 0.00 0.00 0.00 1010.6
20260509120042 0 0.0 0.0 0.00 0.00 0.00 1010.2
20260509114552 0 0.0 0.0 0.00 0.00 0.00 1009.7
20260509113047 0 0.0 0.0 0.00 0.00 0.00 1009.5
20260509111543 0 0.0 0.0 0.00 0.00 0.00 1009.4
20260509110045 0 0.0 0.0 0.00 0.00 0.00 1009.4
20260509104552 0 0 0.0 0.0 0.00 0.00 0.00 1009.4
20260509103048 54 0 0.0 0.0 0.00 0.00 0.00 91 1009.4
20260509101546 54 0 0.0 1.0 0.00 0.00 0.00 91 1009.2
20260509100100 54 0 0.0 0.0 0.00 0.00 0.00 90 1009.4
20260509094542 54 0 0.0 1.0 0.00 0.00 0.00 90 1009.7
20260509093048 54 0 0.0 1.0 0.00 0.00 0.00 89 1009.8
20260509091549 54 0 0.0 0.0 0.00 0.00 0.00 88 1009.9
20260509090047 55 0 0.0 1.0 0.00 0.00 0.00 88 1009.7
20260509084548 55 0 0.0 1.0 0.00 0.00 0.00 88 1009.9
20260509083049 54 0 0.0 1.0 0.00 0.00 0.00 87 1009.5
20260509081550 54 0 0.0 0.0 0.00 0.00 0.00 87 1010.0
20260509080105 54 0 0.0 0.0 0.00 0.00 0.00 88 1009.7
20260509074546 54 0 0.0 0.0 0.00 0.00 0.00 88 1009.7
20260509073135 54 0 0.0 0.0 0.00 0.00 0.00 87 1009.3
20260509071545 54 0 0.0 0.0 0.00 0.00 0.00 87 1009.6
20260509070051 54 0 0.0 0.0 0.00 0.00 0.00 86 1009.9
20260509064549 54 0 0.0 0.0 0.00 0.00 0.00 84 1010.0
20260509063046 55 0 0.0 0.0 0.00 0.00 0.00 83 1010.2
20260509061552 56 0 0.0 0.0 0.00 0.00 0.00 81 1010.6
20260509060050 56 0 0.0 0.0 0.00 0.00 0.00 80 1010.7
20260509054549 57 0 0.0 0.0 0.00 0.00 0.00 79 1010.8
20260509053052 57 0 0.0 1.0 0.00 0.00 0.00 78 1010.8
20260509051556 58 0 0.0 1.0 0.00 0.00 0.00 76 1010.8
20260509050045 58 0 0.0 0.0 0.00 0.00 0.00 75 1010.4